Location: Gorze? G�rny
(49.8500°N, 19.5000°E)
Time: 04:10:49
(UTC+00:00)

Cosmos 44 - Pass Details

Date: 13 May 2021
Orbit: 571 x 791 km, 65.1° (Epoch: 23 June)

Event Time Altitude Azimuth Distance (km) Brightness Sun altitude
Rises 19:34:59 0° 320° (NW) 3,297 9.0 -10.5°
Reaches altitude 10° 19:37:32 10° 327° (NNW) 2,365 7.5 -10.8°
Maximum altitude 19:42:49 47° 41° (NE) 1,031 4.2 -11.3°
Enters shadow 19:47:21 13° 113° (ESE) 2,089 5.2 -11.8°
